Current weather by "City, St" or "zip code"  
 
Advertise Here

Current Conditions: Bloomington, Monroe County Airport, IN

Fair


33.0 F

Last Updated on Jan 20 2021, 1:53 pm EST
Humidity: 52%
Wind Speed: SW 12.7 mph
Barometer 30.21 in
Dewpoint: 17.1 F
Visibility: 10.00 mi
Precip: --
Heat Index: NA
Wind Chill: 24 F
Current conditions at:

Bloomington, Monroe County Airport, IN (KBMG)

Lat: 39.14306 Lon: 86.61667

Local Radar Image active severe weather and emergency alerts image image weather storm and storm spotter reports image weather observation monitoring service image
Local
Radar
Active
Alerts
Storm Reports Obs
Monitoring

Sign-up For Email & Text Message Weather Alert Notification Services


Advertise Here

Observation History for Bloomington, Monroe County Airport, IN


Time Wind
(mph)
Vis
(mi)
Weather Precip (in) Temperature (F) Relative
Humidity
Wind
Chill
(F)
Heat
Index
(F)
Pressure
Air Dwpt altimeter
(in)
sea level
(mb)
Rmks
1:53 pm EST SW 12.7 10.00 Fair -- 33.0 17.1 52% 24 NA 30.21 1023.8
12:53 pm EST SW 9.2 10.00 Fair -- 31.0 18.0 59% 23 NA 30.24 1024.7
11:53 am EST SW 6.9 10.00 Fair -- 29.0 17.1 61% 22 NA 30.30 1026.8
10:53 am EST 3.5 10.00 Fair -- 26.0 17.1 69% NA NA 30.32 1027.5
9:53 am EST N 6.9 10.00 A Few Clouds -- 25.0 16.0 69% 17 NA 30.32 1027.4
8:53 am EST N 0.0 10.00 Fair -- 23.0 16.0 74% NA NA 30.30 1026.7
7:53 am EST N 0.0 10.00 Fair -- 23.0 14.0 68% NA NA 30.29 1026.5
6:53 am EST NW 4.6 10.00 Mostly Cloudy -- 24.0 15.1 68% 18 NA 30.27 1025.9
5:53 am EST NW 8.1 10.00 Mostly Cloudy -- 26.0 16.0 66% 17 NA 30.27 1025.8
4:53 am EST W 10.4 G 18.4 10.00 Overcast -- 28.0 17.1 63% 19 NA 30.26 1025.3
3:53 am EST W 10.4 10.00 Partly Cloudy -- 28.0 17.1 63% 19 NA 30.25 1025.0
2:53 am EST NW 11.5 G 25.3 10.00 A Few Clouds -- 30.0 18.0 61% 20 NA 30.23 1024.5
1:53 am EST W 12.7 G 25.3 10.00 A Few Clouds -- 33.0 19.9 58% 24 NA 30.20 1023.4
12:53 am EST W 10.4 G 24.2 10.00 Mostly Cloudy -- 35.0 26.1 70% 27 NA 30.18 1022.6
11:53 pm EST W 10.4 10.00 Overcast -- 36.0 27.0 70% 28 NA 30.18 1022.7
10:53 pm EST W 10.4 G 20.7 10.00 Overcast -- 36.0 27.0 70% 28 NA 30.20 1023.2
9:53 pm EST W 12.7 G 27.6 10.00 Overcast -- 37.0 27.0 67% 29 NA 30.20 1023.2
8:53 pm EST W 12.7 G 24.2 10.00 Mostly Cloudy -- 39.0 27.0 62% 31 NA 30.18 1022.6
7:53 pm EST SW 8.1 10.00 Overcast -- 38.0 24.1 57% 32 NA 30.19 1022.9
6:53 pm EST W 8.1 10.00 Overcast -- 38.0 23.0 55% 32 NA 30.20 1023.4
5:53 pm EST SW 8.1 10.00 Overcast -- 38.0 23.0 55% 32 NA 30.20 1023.2
4:53 pm EST W 9.2 G 18.4 10.00 Fair -- 40.0 21.0 47% 34 NA 30.21 1023.4
3:53 pm EST SW 9.2 10.00 Fair -- 40.0 25.0 55% 34 NA 30.20 1023.3
2:53 pm EST W 10.4 G 17.3 10.00 Fair -- 40.0 23.0 51% 33 NA 30.21 1023.6

Regional Weather Observation


Greencastle Putnam County, IN (K4I7)

Fog/Mist
55.0 F

Putnam County Regional Airport, IN (KGPC)

Fair
29.0 F

Crawfordsville Municipal Airport, IN (KCFJ)

Fair
28.0 F

Indianapolis International Airport, IN (KIND)

A Few Clouds
33.0 F

Terre Haute Regional Airport, IN (KHUF)

Fair
32.0 F

Edinburgh, IN (K1II)

Overcast
75.0 F